FW3054 Weather Reports


Display with metric or nautical units.
time (UTC)temp
F
wind
direction
speed
MPH
gust
MPH
rain 1hr
in
rain 24hr
in
rain mn
in
humidity
%
barometer
mb
20260508133522 49 0.0 0.0 0.00 0.00 0.00 90 1018.5
20260508132522 49 0.0 0.0 0.00 0.00 0.00 89 1018.4
20260508131522 48 0.0 0.0 0.00 0.00 0.00 86 1018.5
20260508130522 47 0.0 0.0 0.00 0.00 0.00 85 1018.3
20260508125522 46 0.0 0.0 0.00 0.00 0.00 85 1018.1
20260508124522 46 0.0 0.0 0.00 0.00 0.00 85 1018.2
20260508123547 45 0.0 0.0 0.00 0.00 0.00 85 1018.1
20260508122522 45 0.0 0.0 0.00 0.00 0.00 86 1018.0
20260508121522 44 0.0 0.0 0.00 0.00 0.00 86 1018.0
20260508120522 44 0.0 0.0 0.00 0.00 0.00 86 1017.7
20260508115522 43 0.0 0.0 0.00 0.00 0.00 87 1017.5
20260508114522 43 0.0 0.0 0.00 0.00 0.00 88 1017.2
20260508113522 43 0.0 0.0 0.00 0.00 0.00 89 1017.0
20260508112521 43 0.0 0.0 0.00 0.01 0.00 89 1016.8
20260508111522 43 0.0 0.0 0.00 0.03 0.00 89 1016.4
20260508110522 43 0.0 0.0 0.00 0.06 0.00 90 1016.3
20260508105522 43 0.0 0.0 0.00 0.09 0.00 90 1016.2
20260508104522 43 0.0 0.0 0.00 0.12 0.00 90 1016.0
20260508103522 43 0.0 1.0 0.00 0.14 0.00 90 1016.0
20260508102521 44 0.0 0.0 0.00 0.16 0.00 90 1016.0
20260508101522 44 0.0 0.0 0.00 0.16 0.00 90 1015.8
20260508100521 44 0.0 0.0 0.00 0.16 0.00 90 1015.7
20260508095521 44 0.0 0.0 0.00 0.16 0.00 90 1015.6
20260508094522 45 0.0 0.0 0.00 0.16 0.00 90 1015.6
20260508093522 45 0.0 0.0 0.00 0.16 0.00 90 1015.5
20260508092546 45 0.0 0.0 0.00 0.16 0.00 90 1015.4
20260508091522 45 0.0 0.0 0.00 0.16 0.00 90 1015.8
20260508090521 45 0.0 0.0 0.00 0.16 0.00 90 1015.6
20260508085522 45 0.0 1.0 0.00 0.16 0.00 90 1015.5
20260508084521 45 0.0 0.0 0.00 0.16 0.00 90 1015.5
20260508083521 46 0.0 0.0 0.00 0.16 0.00 90 1015.4
20260508082521 46 0.0 0.0 0.00 0.16 0.00 89 1015.2
20260508081521 46 0.0 0.0 0.00 0.16 0.00 89 1015.5
20260508080521 46 0.0 0.0 0.00 0.16 0.00 88 1015.3
20260508075546 46 0.0 0.0 0.00 0.16 0.00 88 1015.2
20260508074547 46 0.0 0.0 0.00 0.16 0.00 87 1015.3
20260508073521 46 0.0 0.0 0.00 0.16 0.00 87 1015.4
20260508072546 46 0.0 0.0 0.00 0.16 0.00 86 1015.2
20260508071521 46 0.0 1.0 0.00 0.16 0.00 86 1015.1
20260508070521 46 0.0 1.0 0.00 0.16 0.00 86 1015.1
20260508065521 46 0.0 0.0 0.00 0.16 0.00 87 1014.9
20260508064521 46 0.0 0.0 0.00 0.17 0.00 88 1014.9
20260508063521 46 0.0 0.0 0.00 0.17 0.00 88 1014.8
20260508062521 46 0.0 0.0 0.00 0.17 0.00 89 1014.9
20260508061546 46 0.0 0.0 0.00 0.17 0.00 89 1015.1
20260508060546 46 0.0 0.0 0.00 0.17 0.00 89 1015.3
20260508055521 46 0.0 0.0 0.00 0.17 0.00 89 1015.2
20260508054521 47 0.0 0.0 0.00 0.17 0.00 89 1015.3
20260508053611 47 0.0 0.0 0.00 0.17 0.00 89 1015.3
20260508052546 47 0.0 0.0 0.00 0.17 0.00 89 1015.2
20260508051521 47 0.0 0.0 0.00 0.17 0.00 89 1015.1
20260508050521 47 0.0 0.0 0.00 0.18 0.00 89 1015.1
20260508045521 47 0.0 0.0 0.00 0.21 0.00 89 1015.2
20260508044521 47 0.0 1.0 0.00 0.23 0.00 89 1015.0
20260508043521 47 0.0 0.0 0.00 0.25 0.00 89 1015.0
20260508042546 47 0.0 1.0 0.00 0.26 0.00 89 1014.9
20260508041611 47 0.0 1.0 0.00 0.27 0.00 90 1015.0
20260508040521 47 0.0 0.0 0.00 0.28 0.00 90 1014.8
20260508035521 48 0.0 0.0 0.00 0.29 0.28 90 1014.8
20260508034521 48 0.0 0.0 0.00 0.30 0.28 90 1014.9
20260508033546 48 0.0 0.0 0.00 0.31 0.28 90 1015.1
20260508032521 48 0.0 0.0 0.00 0.31 0.28 90 1015.4
20260508031521 48 0.0 0.0 0.00 0.31 0.28 90 1015.4
20260508030521 48 0.0 0.0 0.00 0.31 0.28 90 1015.3
20260508025546 48 0.0 0.0 0.00 0.31 0.28 91 1015.2
20260508024521 48 0.0 0.0 0.00 0.31 0.28 91 1015.1
20260508023521 48 0.0 0.0 0.00 0.31 0.28 91 1015.1
20260508022521 48 0.0 0.0 0.00 0.31 0.28 91 1014.8
20260508021521 49 0.0 0.0 0.00 0.31 0.28 91 1014.5
20260508020521 49 0.0 0.0 0.00 0.31 0.28 91 1014.9
20260508015521 49 0.0 0.0 0.00 0.33 0.28 91 1014.6
20260508014521 49 0.0 0.0 0.00 0.35 0.28 91 1014.4
20260508013521 49 0.0 0.0 0.00 0.35 0.28 90 1014.1
20260508012521 50 0.0 0.0 0.00 0.35 0.28 90 1014.1
20260508011521 50 0.0 0.0 0.00 0.35 0.28 90 1013.9
20260508010521 50 0.0 0.0 0.00 0.35 0.28 90 1013.8
20260508005521 51 0.0 0.0 0.00 0.36 0.28 89 1013.8
20260508004521 51 0.0 0.0 0.00 0.36 0.28 89 1013.8
20260508003521 52 0.0 0.0 0.00 0.36 0.28 88 1013.8
20260508002546 52 0.0 0.0 0.00 0.38 0.28 88 1013.8
20260508001521 53 0.0 0.0 0.00 0.41 0.28 87 1013.7
20260508000521 53 0.0 0.0 0.00 0.42 0.28 86 1013.5
20260507235521 54 0.0 0.0 0.00 0.42 0.28 86 1013.5
20260507234521 54 0.0 1.0 0.00 0.42 0.28 85 1013.4
20260507233521 54 23 1.0 3.0 0.00 0.43 0.28 83 1013.4
20260507232521 54 0.0 3.0 0.00 0.47 0.28 84 1013.3
20260507231521 54 0.0 2.0 0.00 0.49 0.28 85 1013.1
20260507230521 54 0.0 2.0 0.00 0.51 0.28 85 1013.3
20260507225521 54 23 1.0 3.0 0.00 0.51 0.28 85 1013.2
20260507224520 54 0.0 0.0 0.00 0.51 0.28 86 1013.2
20260507223521 54 0.0 0.0 0.00 0.51 0.28 86 1013.1
20260507222546 54 0.0 2.0 0.00 0.51 0.28 86 1013.1
20260507221520 54 0.0 2.0 0.00 0.51 0.28 85 1012.8
20260507220546 54 23 2.0 6.0 0.00 0.51 0.28 84 1012.7
20260507215521 54 23 1.0 5.0 0.00 0.52 0.28 84 1012.5
20260507214521 55 0.0 2.0 0.00 0.54 0.28 84 1012.4
20260507213521 55 23 2.0 6.0 0.00 0.55 0.28 83 1012.1
20260507212520 55 23 2.0 5.0 0.00 0.55 0.28 83 1011.8
20260507211520 56 23 1.0 6.0 0.00 0.56 0.28 83 1011.9
20260507210520 57 23 2.0 9.0 0.00 0.56 0.28 81 1011.7
20260507205520 58 23 1.0 6.0 0.00 0.56 0.28 81 1011.6
20260507204520 60 23 3.0 9.0 0.00 0.56 0.28 79 1011.4
20260507203520 61 0 3.0 6.0 0.00 0.56 0.28 78 1011.6
20260507202521 60 0 1.0 3.0 0.00 0.56 0.28 82 1011.5
20260507201520 59 0.0 0.0 0.00 0.56 0.28 84 1011.3
20260507200520 59 0 1.0 3.0 0.00 0.56 0.28 82 1011.4
20260507195520 60 23 1.0 4.0 0.00 0.56 0.28 82 1011.4
20260507194520 60 23 1.0 4.0 0.00 0.56 0.28 82 1011.2
20260507193521 61 0 1.0 3.0 0.00 0.56 0.28 81 1011.1
20260507192520 61 0.0 0.0 0.00 0.56 0.28 81 1011.4
20260507191520 61 0 1.0 5.0 0.00 0.56 0.28 81 1011.2
20260507190520 62 0.0 3.0 0.00 0.56 0.28 84 1011.2
20260507185520 61 0.0 1.0 0.00 0.56 0.28 85 1011.1
20260507184520 60 0.0 2.0 0.00 0.56 0.28 85 1011.5
20260507183610 61 0.0 2.0 0.00 0.56 0.28 87 1011.5
20260507182522 61 0.0 2.0 0.00 0.56 0.28 86 1011.6
20260507181522 61 0.0 0.0 0.00 0.56 0.28 85 1011.9
20260507180522 62 0.0 2.0 0.00 0.56 0.28 83 1011.6
20260507175522 62 0.0 2.0 0.00 0.56 0.28 83 1011.7
20260507174522 63 0 1.0 2.0 0.00 0.56 0.28 83 1011.5
20260507173522 62 0.0 1.0 0.00 0.56 0.28 84 1011.3
20260507172522 62 0.0 2.0 0.00 0.56 0.28 85 1011.4
20260507171522 62 23 1.0 4.0 0.00 0.56 0.28 85 1011.5
20260507170522 62 0.0 3.0 0.00 0.56 0.28 86 1011.3
20260507165547 61 0.0 1.0 0.00 0.56 0.28 88 1011.2
20260507164522 61 23 1.0 4.0 0.00 0.56 0.28 88 1011.2
20260507163522 61 0.0 2.0 0.00 0.56 0.28 89 1011.1
20260507162522 61 0 1.0 5.0 0.00 0.56 0.28 89 1011.3
20260507161522 61 0 1.0 6.0 0.00 0.57 0.28 90 1011.4
20260507160547 61 0.0 3.0 0.00 0.58 0.28 90 1011.6
20260507155522 62 23 1.0 4.0 0.00 0.60 0.28 90 1011.5
20260507154522 62 0.0 1.0 0.00 0.61 0.28 87 1011.4
20260507153522 61 0.0 3.0 0.00 0.64 0.28 89 1011.3
20260507152522 62 0 2.0 3.0 0.00 0.69 0.28 82 1011.4
20260507151547 62 0.0 1.0 0.00 0.83 0.28 75 1011.2
20260507150522 61 0.0 0.0 0.00 0.85 0.28 73 1011.0
20260507145522 61 0.0 0.0 0.00 0.86 0.28 74 1011.0
20260507144522 61 0.0 0.0 0.00 0.87 0.28 75 1011.0
20260507143522 61 0.0 0.0 0.00 0.87 0.28 75 1011.0
20260507142522 61 0.0 0.0 0.00 0.87 0.28 74 1011.1
20260507141522 61 0.0 1.0 0.00 0.87 0.28 71 1011.5
20260507140613 61 0.0 1.0 0.00 0.87 0.28 70 1011.2
20260507135522 61 0.0 0.0 0.00 0.87 0.28 70 1011.2
20260507134522 61 0.0 0.0 0.00 0.87 0.28 70 1011.1